Weather History for Fargo, ND

Change the Weather History Date:

Friday, October 4, 2013

  Actual Average Record
Temperature  
Mean Temperature 47 °F 51 °F  
Max Temperature 50 °F 62 °F 87 °F (1975)
Min Temperature 44 °F 40 °F 22 °F (2004)
Degree Days  
Heating Degree Days 18 14  
Month to date heating degree days 49 54  
Since 1 July heating degree days 174 324  
Cooling Degree Days 0 0  
Month to date cooling degree days 0 0  
Year to date cooling degree days 699 548  
Moisture  
Dew Point 42 °F    
Average Humidity 80    
Maximum Humidity 86    
Minimum Humidity 74    
Precipitation  
Precipitation 0.29 in 0.08 in 1.84 in (1913)
Month to date precipitation 0.29 0.33  
Year to date precipitation 26.60 18.96  
Snow  
Snow 0.00 in 0.00 in 1.40 in (2012)
Month to date snowfall 0.0 0.0  
Since 1 July snowfall 0.0 0.0  
Since 1 September snowfall 0.0 0.0  
Snow Depth 0.00 in    
Sea Level Pressure  
Sea Level Pressure 30.08 in    
Wind  
Wind Speed 21 mph (NNE)    
Max Wind Speed 30 mph    
Max Gust Speed 39 mph    
Visibility 7 miles    
Events Rain    
T = Trace of Precipitation, MM = Missing Value Source: NWS Daily Summary

Daily Weather History Graph

Daily Weather History Graph

Search for Another Location

Airport:

Trip Planner

Search our weather history database for the weather conditions in past years. The results will help you decide how hot, cold, wet, or windy it might be!

Date:

Astronomy

Oct. 04, 2013 Rise Set
Actual Time 7:30 AM CDT 7:00 PM CDT
Civil Twilight 7:00 AM CDT 7:30 PM CDT
Nautical Twilight 6:24 AM CDT 8:05 PM CDT
Astronomical Twilight 5:49 AM CDT 8:41 PM CDT
Moon 7:08 AM CDT (10/4) 6:41 PM CDT (10/4)
Length of Visible Light 12h 30m
Length of Day
11h 30m
Waning Crescent, 0% of the Moon is Illuminated
Oct 4
Waning Crescent
Oct 4
New
Oct 11
First Quarter
Oct 18
Full
Oct 26
Last Quarter

Hourly Weather History & Observations

Time (CDT) Temp. Windchill Dew Point Humidity Pressure Visibility Wind Dir Wind Speed Gust Speed Precip Events Conditions
12:53 AM 50.0 °F - 42.1 °F 74% 30.09 in 10.0 mi North 13.8 mph - N/A   Scattered Clouds
1:53 AM 48.9 °F - 42.1 °F 77% 30.09 in 10.0 mi North 18.4 mph 25.3 mph N/A   Overcast
2:53 AM 48.0 °F - 41.0 °F 77% 30.10 in 10.0 mi North 16.1 mph - N/A   Overcast
3:53 AM 46.9 °F - 41.0 °F 80% 30.11 in 10.0 mi North 17.3 mph 24.2 mph N/A   Overcast
4:28 AM 46.4 °F 39.8 °F 41.0 °F 81% 30.10 in 10.0 mi North 16.1 mph - N/A   Overcast
4:53 AM 46.9 °F - 41.0 °F 80% 30.12 in 10.0 mi NNE 13.8 mph - N/A   Overcast
5:53 AM 46.0 °F 39.3 °F 39.9 °F 79% 30.13 in 10.0 mi North 16.1 mph - N/A   Overcast
6:53 AM 45.0 °F 36.6 °F 39.9 °F 82% 30.13 in 10.0 mi North 21.9 mph 28.8 mph N/A   Overcast
7:53 AM 45.0 °F 37.1 °F 39.0 °F 80% 30.17 in 10.0 mi North 19.6 mph - N/A   Overcast
8:53 AM 45.0 °F 37.1 °F 37.9 °F 76% 30.17 in 10.0 mi North 19.6 mph 26.5 mph N/A   Overcast
9:53 AM 45.0 °F 36.9 °F 37.9 °F 76% 30.17 in 10.0 mi North 20.7 mph 29.9 mph N/A   Overcast
10:34 AM 44.6 °F 36.4 °F 39.2 °F 81% 30.13 in 7.0 mi North 20.7 mph 28.8 mph 0.00 in Rain Light Rain
10:53 AM 44.1 °F 36.8 °F 39.9 °F 85% 30.15 in 10.0 mi NNE 16.1 mph 26.5 mph 0.00 in Rain Light Rain
11:23 AM 44.6 °F 36.9 °F 39.2 °F 81% 30.12 in 10.0 mi NNE 18.4 mph 25.3 mph 0.00 in   Overcast
11:53 AM 46.0 °F 38.0 °F 39.9 °F 79% 30.14 in 10.0 mi North 21.9 mph 28.8 mph 0.00 in   Overcast
12:10 PM 46.4 °F 39.5 °F 39.2 °F 76% 30.13 in 10.0 mi North 17.3 mph 27.6 mph N/A   Overcast
12:53 PM 46.0 °F 38.8 °F 39.9 °F 79% 30.14 in 10.0 mi North 18.4 mph 31.1 mph N/A   Overcast
1:53 PM 48.0 °F - 41.0 °F 77% 30.11 in 10.0 mi North 21.9 mph 27.6 mph N/A   Overcast
2:53 PM 48.9 °F - 42.1 °F 77% 30.08 in 10.0 mi North 23.0 mph 35.7 mph 0.00 in   Overcast
3:53 PM 48.9 °F - 44.1 °F 83% 30.06 in 5.0 mi North 21.9 mph 32.2 mph 0.00 in Rain Light Rain
4:23 PM 48.2 °F - 44.6 °F 87% 30.05 in 6.0 mi North 18.4 mph 26.5 mph 0.02 in Rain Light Rain
4:53 PM 46.9 °F - 43.0 °F 86% 30.07 in 6.0 mi North 20.7 mph 31.1 mph 0.02 in Rain Light Rain
5:53 PM 48.0 °F - 43.0 °F 83% 30.07 in 10.0 mi NNE 21.9 mph 33.4 mph 0.00 in   Overcast
6:17 PM 46.4 °F 38.1 °F 42.8 °F 87% 30.02 in 2.0 mi NNE 24.2 mph 34.5 mph 0.00 in   Overcast
6:24 PM 46.4 °F 38.5 °F 42.8 °F 87% 30.02 in 1.8 mi North 21.9 mph 31.1 mph 0.00 in   Overcast
6:30 PM 46.4 °F 38.3 °F 42.8 °F 87% 30.02 in 2.0 mi NNE 23.0 mph 32.2 mph 0.00 in   Overcast
6:45 PM 46.4 °F 38.5 °F 42.8 °F 87% 30.03 in 3.0 mi NNE 21.9 mph 32.2 mph 0.00 in Rain Light Rain
6:53 PM 46.0 °F 37.6 °F 43.0 °F 89% 30.05 in 5.0 mi North 24.2 mph 34.5 mph 0.00 in Rain Light Rain
7:53 PM 46.0 °F 37.8 °F 42.1 °F 86% 30.04 in 5.0 mi NNE 23.0 mph 35.7 mph 0.03 in Rain Light Rain
8:53 PM 46.0 °F 38.3 °F 42.1 °F 86% 30.03 in 5.0 mi NNE 20.7 mph 29.9 mph 0.01 in Rain Light Rain
9:39 PM 46.4 °F 38.7 °F 42.8 °F 87% 30.00 in 1.8 mi NNE 20.7 mph 27.6 mph 0.08 in Rain Heavy Rain
9:50 PM 46.4 °F 38.7 °F 42.8 °F 87% 30.00 in 3.0 mi NNE 20.7 mph 28.8 mph 0.15 in Rain Light Rain
9:53 PM 46.0 °F 38.3 °F 43.0 °F 89% 30.02 in 3.0 mi NNE 20.7 mph 28.8 mph 0.15 in Rain Light Rain
9:57 PM 46.4 °F 38.5 °F 42.8 °F 87% 30.00 in 4.0 mi NNE 21.9 mph 28.8 mph 0.00 in Rain Light Rain
10:07 PM 46.4 °F 38.1 °F 42.8 °F 87% 29.99 in 7.0 mi NNE 24.2 mph 32.2 mph 0.00 in Rain Light Rain
10:53 PM 46.9 °F - 44.1 °F 90% 29.97 in 5.0 mi NNE 26.5 mph 38.0 mph 0.00 in Rain Light Rain
11:00 PM 46.4 °F 37.5 °F 44.6 °F 93% 29.94 in 8.0 mi NNE 27.6 mph 39.1 mph N/A   Overcast
11:53 PM 48.0 °F - 44.1 °F 86% 29.95 in 10.0 mi NNE 25.3 mph 34.5 mph 0.02 in Rain Light Rain